{"data":{"norad_id":65095,"intl_designator":"2025-167T","name":"STARLINK-34768","alt_names":[],"object_type":"PAYLOAD","status":"ACTIVE","operator":null,"country":"US","launch_date":"2025-08-04","launch_site_code":"AFETR","launch_vehicle":null,"mission":null,"orbit_class":"UNKNOWN","rcs_meters":null,"size_class":null,"mass_kg":null,"dimensions":null,"purposes":["comms"],"wikipedia_slug":null,"has_3d_model":false,"image_url":null,"decayed_at":null,"tle_current":{"epoch":"2026-09-20T05:28:30.724896Z","epoch_age_seconds":143736,"freshness":"FRESH","line1":"1 65095U 25167T   26263.22813339  .00023973  00000+0  71804-3 0  9992","line2":"2 65095  53.1578 195.2960 0000942  75.2413 284.8694 15.34415661 63371","mean_motion":15.34415661,"eccentricity":9.42e-5,"inclination_deg":53.1578,"raan_deg":195.296,"arg_perigee_deg":75.2413,"mean_anomaly_deg":284.8694,"bstar":0.00071804,"rev_number":6337,"period_min":93.846800225014,"perigee_km":462.01229004474,"apogee_km":463.30109557647,"semimajor_km":6840.7936928106,"source":"CELESTRAK","updated_at":"2026-09-21T09:00:35.524469Z"}}}